This is the latest recevied weather packets stored in our database for station/object DJ5NF-10. If no packets are shown the sender has not sent any weather packets the latest 10 day(s).
| Time | Temp. | Humidity | Pressure | Rain* | Wind** | Luminosity | Snow |
|---|---|---|---|---|---|---|---|
| 1787789326 | 26.67° C | 35% | 1010.2 hPa | - | - | - | - |
| 1787775826 | 27.22° C | 36% | 1010.7 hPa | - | - | - | - |
| 1787767726 | 27.78° C | 35% | 1010.4 hPa | - | - | - | - |
| 1787754228 | 27.22° C | 35% | 1011 hPa | - | - | - | - |
| 1787746127 | 26.67° C | 34% | 1011.7 hPa | - | - | - | - |
| 1787743427 | 26.11° C | 34% | 1011.9 hPa | - | - | - | - |
| 1787740727 | 25.56° C | 34% | 1012 hPa | - | - | - | - |
| 1787735327 | 25° C | 34% | 1012.4 hPa | - | - | - | - |
| 1787721827 | 24.44° C | 34% | 1011.9 hPa | - | - | - | - |
| 1787711026 | 24.44° C | 35% | 1011.8 hPa | - | - | - | - |
| 1787705626 | 25° C | 34% | 1011.6 hPa | - | - | - | - |
| 1787702926 | 25.56° C | 34% | 1011.5 hPa | - | - | - | - |
| 1787700226 | 25.56° C | 34% | 1011.8 hPa | - | - | - | - |
| 1787694825 | 25.56° C | 34% | 1011.8 hPa | - | - | - | - |
| 1787689425 | 25.56° C | 34% | 1011.7 hPa | - | - | - | - |
| 1787684025 | 26.11° C | 34% | 1011 hPa | - | - | - | - |
| 1787681325 | 26.11° C | 34% | 1010.6 hPa | - | - | - | - |
| 1787678627 | 26.11° C | 34% | 1010.4 hPa | - | - | - | - |
| 1787675927 | 26.11° C | 34% | 1010 hPa | - | - | - | - |
| 1787670527 | 26.11° C | 34% | 1009.7 hPa | - | - | - | - |
| 1787665127 | 25.56° C | 33% | 1009.8 hPa | - | - | - | - |
| 1787662427 | 25.56° C | 33% | 1009.9 hPa | - | - | - | - |
| 1787657027 | 25° C | 33% | 1009.9 hPa | - | - | - | - |
| 1787651626 | 24.44° C | 33% | 1010.1 hPa | - | - | - | - |
| 1787646225 | 23.89° C | 34% | 1010.3 hPa | - | - | - | - |
* Rain since midnight (hover to see other rain measurements)
** Current wind speed in m/s (hover to see current wind gust speed)